Portada
METAR-TAF:

METAR-TAF

Aeroports :

Lansing Municipal Airport

Lansing, Illinois, Estats Units d'Amèrica

latitud: 41-32-24N, longitud: 087-31-56W, altitud: 188 m

Observació

L'informe es va fer fa 15 minuts, a les 16:55 UTC
Vent 4 kt del Sud/Sud-Oest
Temperatura -3°C
Humitat 93%
Pressió 1026 hPa
Visibilitat: 11.3 km
Cel clar

METAR: KIGQ 101655Z AUTO 21004KT 7SM CLR M03/M04 A3029 RMK AO2 T10341038

Hora: 11:10 (17:10 UTC)


TAF: manca

Observacions i pronòstics meteorològics de més de 4000 aeroports (METAR i TAF).

Les estacions disponibles són els punts grocs i vermells al mapa.

Posi el ratolí al punt desitjat per veure el nom de l'estació.

Feu clic per veure les observacions i els pronòstics meteorològics.

Per canviar el mapa: feu clic els botons verds amb una creu de color negre per apropar; al botó verd amb un guió per allunyar la imatge; o en les fletxes verdes per a mapes adjacents.


METAR-TAF: